Location: Aytr�
(46.1357°N, 1.1145°W)
Time: 01:33:56
(UTC+00:00)

Nauka - Pass Details

Date: 20 September 2021
Orbit: 417 x 423 km, 51.6° (Epoch: 19 October)

Event Time Altitude Azimuth Distance (km) Brightness Sun altitude
Rises 20:22:36 0° 271° (W) 2,361 ? -23.6°
Reaches altitude 10° 20:24:48 10° 280° (W) 1,500 ? -23.9°
Enters shadow 20:27:30 34° 330° (NNW) 715 ? -24.3°
